When you browse on this site, cookies collect data to enhance your experience and personalize the content and advertising you see.
Visit our Privacy Policy to learn more. By continuing to use the site, you agree to this use of cookies and data.
  • în România
  • Lista ţărilor
  • Pe 7 zile
  • Temperatura apei
  • Meteo pe hartă
  • Widget-uri
  • user-avatar
    Intrare

    Meteo pe oră la Can Tho

    Astăzi, 15 Decembrie, Duminică

    Timp Temperatura Precipitaţii Vânt Presiune Umiditate
    00:00 +26°C° 0 mm 2 m/s 759 mmHg 82%
    01:00 +26°C° 0 mm 2 m/s 758 mmHg 81%
    02:00 +25°C° 0 mm 2 m/s 758 mmHg 83%
    03:00 +25°C° 0 mm 2 m/s 758 mmHg 85%
    04:00 +25°C° 0 mm 2 m/s 757 mmHg 86%
    05:00 +25°C° 0 mm 2 m/s 758 mmHg 86%
    06:00 +25°C° 0 mm 2 m/s 758 mmHg 86%
    07:00 +26°C° 0 mm 2 m/s 759 mmHg 84%
    08:00 +27°C° 0 mm 2 m/s 759 mmHg 78%
    09:00 +29°C° 0 mm 2 m/s 759 mmHg 71%
    10:00 +31°C° 0 mm 3 m/s 759 mmHg 65%
    11:00 +31°C° 0 mm 3 m/s 759 mmHg 61%
    12:00 +33°C° 0 mm 3 m/s 758 mmHg 57%
    13:00 +34°C° 0 mm 3 m/s 758 mmHg 53%
    14:00 +34°C° 0 mm 3 m/s 757 mmHg 54%
    15:00 +33°C° 0 mm 4 m/s 756 mmHg 55%
    16:00 +33°C° 0 mm 4 m/s 756 mmHg 56%
    17:00 +30°C° 0 mm 4 m/s 756 mmHg 62%
    18:00 +29°C° 0 mm 3 m/s 757 mmHg 68%
    19:00 +27°C° 0 mm 3 m/s 757 mmHg 75%
    20:00 +27°C° 0 mm 3 m/s 757 mmHg 76%
    21:00 +27°C° 0 mm 3 m/s 758 mmHg 78%
    22:00 +27°C° 0 mm 3 m/s 758 mmHg 80%
    23:00 +26°C° 0 mm 2 m/s 758 mmHg 82%

    Mâine, 16 Decembrie, Luni

    Timp Temperatura Precipitaţii Vânt Presiune Umiditate
    00:00 +26°C° 0 mm 2 m/s 758 mmHg 84%
    01:00 +26°C° 0 mm 1 m/s 757 mmHg 85%
    02:00 +25°C° 0 mm 1 m/s 757 mmHg 87%
    03:00 +25°C° 0 mm 1 m/s 757 mmHg 88%
    04:00 +25°C° 0 mm 1 m/s 756 mmHg 89%
    05:00 +25°C° 0 mm 1 m/s 757 mmHg 89%
    06:00 +25°C° 0 mm 1 m/s 757 mmHg 88%
    07:00 +26°C° 0 mm 2 m/s 758 mmHg 88%
    08:00 +27°C° 0 mm 2 m/s 758 mmHg 80%
    09:00 +29°C° 0 mm 2 m/s 758 mmHg 73%
    10:00 +31°C° 0 mm 2 m/s 758 mmHg 65%
    11:00 +32°C° 0 mm 2 m/s 757 mmHg 61%
    12:00 +34°C° 0 mm 3 m/s 757 mmHg 56%
    13:00 +35°C° 0 mm 4 m/s 756 mmHg 52%
    14:00 +34°C° 0 mm 4 m/s 756 mmHg 54%
    15:00 +34°C° 0 mm 5 m/s 756 mmHg 55%
    16:00 +34°C° 0 mm 5 m/s 755 mmHg 57%
    17:00 +32°C° 0 mm 4 m/s 756 mmHg 63%
    18:00 +29°C° 0 mm 4 m/s 756 mmHg 68%
    19:00 +28°C° 0 mm 3 m/s 757 mmHg 74%
    20:00 +27°C° 0 mm 3 m/s 757 mmHg 76%
    21:00 +27°C° 0 mm 3 m/s 758 mmHg 78%
    22:00 +26°C° 0 mm 3 m/s 758 mmHg 80%
    23:00 +26°C° 0 mm 3 m/s 758 mmHg 81%

    Poimâine, 17 Decembrie, Marţi

    Timp Temperatura Precipitaţii Vânt Presiune Umiditate
    00:00 +26°C° 0 mm 3 m/s 758 mmHg 82%
    01:00 +26°C° 0 mm 2 m/s 757 mmHg 83%
    02:00 +25°C° 0 mm 2 m/s 757 mmHg 83%
    03:00 +25°C° 0 mm 2 m/s 757 mmHg 84%
    04:00 +25°C° 0 mm 2 m/s 756 mmHg 84%
    05:00 +25°C° 0 mm 2 m/s 757 mmHg 84%
    06:00 +25°C° 0 mm 3 m/s 757 mmHg 83%
    07:00 +26°C° 0 mm 3 m/s 758 mmHg 82%
    08:00 +28°C° 0 mm 3 m/s 758 mmHg 76%
    09:00 +29°C° 0 mm 3 m/s 758 mmHg 70%
    10:00 +32°C° 0 mm 4 m/s 759 mmHg 63%
    11:00 +33°C° 0.1 mm 4 m/s 758 mmHg 60%
    12:00 +34°C° 0.1 mm 3 m/s 757 mmHg 56%
    13:00 +35°C° 0.1 mm 3 m/s 757 mmHg 52%
    14:00 +34°C° 0 mm 4 m/s 756 mmHg 53%
    15:00 +34°C° 0 mm 4 m/s 756 mmHg 53%
    16:00 +33°C° 0 mm 4 m/s 756 mmHg 53%
    17:00 +30°C° 0 mm 4 m/s 756 mmHg 57%
    18:00 +29°C° 0 mm 4 m/s 757 mmHg 62%
    19:00 +27°C° 0 mm 3 m/s 757 mmHg 66%
    20:00 +27°C° 0 mm 3 m/s 758 mmHg 69%
    21:00 +26°C° 0 mm 3 m/s 758 mmHg 72%
    22:00 +26°C° 0 mm 3 m/s 758 mmHg 74%
    23:00 +25°C° 0 mm 2 m/s 758 mmHg 77%

    18 Decembrie, Miercuri

    Timp Temperatura Precipitaţii Vânt Presiune Umiditate
    00:00 +25°C° 0 mm 2 m/s 758 mmHg 80%
    01:00 +25°C° 0 mm 2 m/s 758 mmHg 83%
    02:00 +25°C° 0 mm 2 m/s 757 mmHg 83%
    03:00 +24°C° 0 mm 2 m/s 757 mmHg 83%
    04:00 +24°C° 0 mm 2 m/s 757 mmHg 83%
    05:00 +24°C° 0 mm 2 m/s 757 mmHg 82%
    06:00 +24°C° 0 mm 2 m/s 758 mmHg 81%
    07:00 +25°C° 0 mm 2 m/s 758 mmHg 80%
    08:00 +27°C° 0 mm 2 m/s 758 mmHg 72%
    09:00 +29°C° 0 mm 2 m/s 759 mmHg 64%
    10:00 +31°C° 0 mm 3 m/s 759 mmHg 55%
    11:00 +33°C° 0 mm 3 m/s 758 mmHg 52%
    12:00 +34°C° 0 mm 2 m/s 758 mmHg 49%
    13:00 +35°C° 0 mm 2 m/s 757 mmHg 46%
    14:00 +35°C° 0 mm 3 m/s 757 mmHg 48%
    15:00 +34°C° 0 mm 3 m/s 756 mmHg 50%
    16:00 +34°C° 0 mm 4 m/s 756 mmHg 52%
    17:00 +32°C° 0 mm 4 m/s 756 mmHg 59%
    18:00 +29°C° 0 mm 4 m/s 757 mmHg 65%
    19:00 +27°C° 0 mm 4 m/s 757 mmHg 72%
    20:00 +27°C° 0 mm 3 m/s 758 mmHg 75%
    21:00 +26°C° 0 mm 3 m/s 758 mmHg 79%
    22:00 +26°C° 0 mm 3 m/s 759 mmHg 82%
    23:00 +26°C° 0 mm 3 m/s 758 mmHg 83%

    19 Decembrie, Joi

    Timp Temperatura Precipitaţii Vânt Presiune Umiditate
    00:00 +26°C° 0 mm 2 m/s 758 mmHg 83%
    01:00 +26°C° 0 mm 2 m/s 758 mmHg 84%
    02:00 +26°C° 0 mm 2 m/s 757 mmHg 86%
    03:00 +25°C° 0 mm 2 m/s 757 mmHg 87%
    04:00 +25°C° 0 mm 1 m/s 757 mmHg 89%
    05:00 +26°C° 0 mm 1 m/s 757 mmHg 87%
    06:00 +26°C° 0 mm 1 m/s 758 mmHg 86%
    07:00 +26°C° 0 mm 1 m/s 758 mmHg 85%
    08:00 +28°C° 0 mm 2 m/s 758 mmHg 76%
    09:00 +30°C° 0 mm 3 m/s 759 mmHg 68%
    10:00 +33°C° 0 mm 3 m/s 759 mmHg 60%
    11:00 +34°C° 0 mm 3 m/s 758 mmHg 56%
    12:00 +34°C° 0 mm 3 m/s 758 mmHg 53%
    13:00 +35°C° 0 mm 3 m/s 757 mmHg 49%
    14:00 +34°C° 0.2 mm 3 m/s 757 mmHg 54%
    15:00 +33°C° 0.2 mm 3 m/s 756 mmHg 58%
    16:00 +32°C° 0.2 mm 4 m/s 756 mmHg 62%
    17:00 +30°C° 0.1 mm 3 m/s 756 mmHg 67%
    18:00 +28°C° 0.1 mm 3 m/s 757 mmHg 71%
    19:00 +27°C° 0.1 mm 3 m/s 757 mmHg 75%
    20:00 +27°C° 0 mm 3 m/s 758 mmHg 77%
    21:00 +26°C° 0 mm 3 m/s 758 mmHg 80%
    22:00 +26°C° 0 mm 3 m/s 759 mmHg 82%
    23:00 +26°C° 0 mm 3 m/s 758 mmHg 83%

    20 Decembrie, Vineri

    Timp Temperatura Precipitaţii Vânt Presiune Umiditate
    00:00 +26°C° 0 mm 3 m/s 758 mmHg 84%
    01:00 +26°C° 0 mm 3 m/s 758 mmHg 85%
    02:00 +25°C° 0 mm 3 m/s 757 mmHg 86%
    03:00 +25°C° 0 mm 3 m/s 757 mmHg 86%
    04:00 +25°C° 0 mm 3 m/s 756 mmHg 87%
    05:00 +25°C° 0 mm 3 m/s 757 mmHg 86%
    06:00 +25°C° 0 mm 3 m/s 757 mmHg 85%
    07:00 +25°C° 0 mm 3 m/s 758 mmHg 84%
    08:00 +27°C° 0 mm 3 m/s 758 mmHg 75%
    09:00 +29°C° 0 mm 4 m/s 758 mmHg 67%
    10:00 +32°C° 0 mm 4 m/s 759 mmHg 58%
    11:00 +33°C° 0 mm 4 m/s 758 mmHg 55%
    12:00 +34°C° 0 mm 4 m/s 757 mmHg 52%
    13:00 +35°C° 0 mm 3 m/s 756 mmHg 49%
    14:00 +35°C° 0 mm 3 m/s 756 mmHg 50%
    15:00 +34°C° 0 mm 3 m/s 756 mmHg 52%
    16:00 +34°C° 0 mm 3 m/s 755 mmHg 53%
    17:00 +31°C° 0 mm 3 m/s 755 mmHg 60%
    18:00 +29°C° 0 mm 3 m/s 756 mmHg 68%
    19:00 +27°C° 0 mm 3 m/s 756 mmHg 75%
    20:00 +26°C° 0 mm 3 m/s 757 mmHg 77%
    21:00 +26°C° 0 mm 3 m/s 757 mmHg 79%
    22:00 +25°C° 0 mm 3 m/s 758 mmHg 81%
    23:00 +25°C° 0 mm 3 m/s 758 mmHg 81%
    Arată mai mult